Location: Courçay
(47.2523°N, 0.8761°E)
Time: 08:10:54
(UTC+00:00)

Cosmos 304 Rocket - Pass Details

Date: 18 November 2025
Orbit: 668 x 677 km, 74.0° (Epoch: 13 December)

Event Time Altitude Azimuth Distance (km) Brightness Sun altitude
Rises 18:40:33 0° 209° (SSW) 3,002 7.5 -24.0°
Reaches altitude 10° 18:42:50 10° 212° (SSW) 2,094 6.7 -24.4°
Maximum altitude 18:47:31 66° 294° (WNW) 738 4.0 -25.2°
Enters shadow 18:48:49 45° 357° (N) 919 4.3 -25.4°
